Location: Newark
(31.5000°N, 18.0000°E)
Time: 14:14:55
(UTC+00:00)

ISS - Visible Passes

Search period start: 18 September 2020 00:00
Search period end: 28 September 2020 00:00
Orbit: 419 x 420 km, 51.6° (Epoch: 18 September)

Date Brightness Start Highest point End Pass type
(mag) Time Alt. Az. Time Alt. Az. Time Alt. Az.
18 Sep -1.5 18:01:49 10° W 18:04:36 24° NW 18:07:24 10° NNE visible
19 Sep -2.5 17:13:56 10° WSW 17:17:08 41° NW 17:20:21 10° NNE visible
21 Sep -0.9 17:17:20 10° WNW 17:19:22 15° NW 17:21:23 10° N visible
